Weather reports worldwide

Advertisment
Zamora, Spain (8130): temperature & dewpoint: 15.02.2020 04:00:00 - 21.02.2020 04:00:00 (CET)Zamora, Spain (8130): wind speed: 15.02.2020 04:00:00 - 21.02.2020 04:00:00 (CET)Zamora, Spain (8130): wind direction: 15.02.2020 04:00:00 - 21.02.2020 04:00:00 (CET)Zamora, Spain (8130): reduced air pressure: 15.02.2020 04:00:00 - 21.02.2020 04:00:00 (CET)Zamora, Spain (8130): visibility: 15.02.2020 04:00:00 - 21.02.2020 04:00:00 (CET)Zamora, Spain (8130): precipitation: 15.02.2020 04:00:00 - 21.02.2020 04:00:00 (CET)
Date & Time tt [°C] td [°C] ff [km/h] ff [kn] dd ppp [hPa] vv [km] rr [mm]
21.02.2020 04:00:00 - - - - - - - -
21.02.2020 03:00:00 3,0 1,0 4 2 NNE 1031,6 17 0,0
21.02.2020 02:00:00 3,4 1,4 8 4 N 1031,1 19 0,0
21.02.2020 01:00:00 3,8 1,3 2 1 SW 1030,7 20 -
21.02.2020 00:00:00 4,4 1,8 4 2 NNW 1029,9 20 0,0
20.02.2020 23:00:00 5,0 0,9 2 1 N 1028,6 19 0,0
20.02.2020 22:00:00 7,0 1,3 2 1 N 1027,3 19 -
20.02.2020 21:00:00 8,5 1,4 2 1 E 1026,4 20 0,0
20.02.2020 20:00:00 10,4 1,7 4 2 ENE 1025,8 20 0,0
20.02.2020 19:00:00 12,0 2,4 4 2 NNE 1025,0 20 -
20.02.2020 18:00:00 13,7 2,9 4 2 E 1024,3 20 0,0
20.02.2020 17:00:00 15,2 4,3 5 3 E 1023,7 20 0,0
20.02.2020 16:00:00 15,7 4,7 5 3 NE 1023,5 20 -
20.02.2020 15:00:00 14,9 5,7 5 3 NE 1023,8 20 0,0
20.02.2020 14:00:00 12,8 5,0 5 3 N 1025,0 17 0,0
20.02.2020 13:00:00 10,6 3,8 2 1 S 1026,3 20 -
20.02.2020 12:00:00 7,4 2,3 4 2 SSE 1027,4 9 0,0
20.02.2020 11:00:00 3,2 1,2 4 2 ENE 1028,9 18 0,0
20.02.2020 10:00:00 -0,2 -0,8 4 2 NNE 1029,7 20 -
20.02.2020 09:00:00 -1,7 -2,5 2 1 N 1029,4 13 0,0
20.02.2020 08:00:00 -1,8 -2,6 2 1 NNE 1028,9 12 0,0
20.02.2020 07:00:00 -1,5 -2,5 4 2 ENE 1028,7 20 -
20.02.2020 06:00:00 -0,8 -1,9 2 1 N 1028,5 17 0,0
20.02.2020 05:00:00 -0,5 -1,6 2 1 NE 1028,4 17 0,0
20.02.2020 04:00:00 -0,1 -1,4 4 2 ENE 1028,8 18 -
20.02.2020 03:00:00 0,5 -1,0 2 1 NNW 1029,6 18 0,0
20.02.2020 02:00:00 1,4 -0,2 2 1 N 1029,7 17 0,0
20.02.2020 01:00:00 2,5 -0,4 2 1 E 1029,8 19 -
20.02.2020 00:00:00 3,8 0,5 2 1 NW 1030,0 19 0,0
19.02.2020 23:00:00 4,6 0,7 2 1 N 1030,0 20 0,0
19.02.2020 22:00:00 5,5 0,7 2 1 E 1030,1 19 -
19.02.2020 21:00:00 6,6 1,3 4 2 NW 1030,1 19 0,0
19.02.2020 20:00:00 8,2 1,6 2 1 N 1029,7 20 0,0
19.02.2020 19:00:00 10,1 1,7 4 2 ENE 1029,1 20 -
19.02.2020 18:00:00 11,2 2,2 4 2 ESE 1029,1 20 0,0
19.02.2020 17:00:00 12,5 1,2 5 3 S 1029,1 12 0,0
19.02.2020 16:00:00 13,0 1,9 4 2 SE 1029,7 10 -
19.02.2020 15:00:00 11,8 3,0 9 5 E 1031,1 8 0,0
19.02.2020 14:00:00 10,9 3,0 8 4 E 1032,7 3,4 0,0
19.02.2020 13:00:00 8,8 3,0 8 4 E 1034,4 20 -
19.02.2020 12:00:00 6,0 1,9 4 2 E 1035,9 3,2 0,0
19.02.2020 11:00:00 2,9 0,6 4 2 ENE 1037,2 6 0,0
19.02.2020 10:00:00 0,0 -1,0 5 3 NNE 1038,4 10 -
19.02.2020 09:00:00 -1,3 -2,1 4 2 E 1037,9 5 0,0
19.02.2020 08:00:00 -1,5 -2,6 4 2 E 1037,5 6 0,0
19.02.2020 07:00:00 -1,3 -2,3 4 2 NNE 1037,3 20 -
19.02.2020 06:00:00 -1,1 -2,1 5 3 NNE 1036,6 14 0,0
19.02.2020 05:00:00 -0,6 -1,9 5 3 NNE 1036,2 11 0,0
19.02.2020 04:00:00 0,2 -1,2 2 1 NNE 1036,2 14 -
19.02.2020 03:00:00 0,9 -0,7 4 2 N 1036,5 18 0,0
19.02.2020 02:00:00 1,6 -0,3 4 2 N 1036,5 15 0,0
19.02.2020 01:00:00 2,1 -0,5 2 1 NE 1036,8 8 -
19.02.2020 00:00:00 3,2 0,1 4 2 NE 1036,6 15 0,0
18.02.2020 23:00:00 3,7 0,4 2 1 NNW 1036,0 17 0,0
18.02.2020 22:00:00 4,6 0,5 4 2 ENE 1035,5 9 -
18.02.2020 21:00:00 5,7 1,2 2 1 N 1035,0 15 0,0
18.02.2020 20:00:00 7,0 1,3 2 1 NE 1034,5 15 0,0
18.02.2020 19:00:00 8,2 1,1 5 3 ENE 1033,0 9 -
18.02.2020 18:00:00 9,6 1,2 9 5 ENE 1032,5 6 0,0
18.02.2020 17:00:00 10,7 1,8 9 5 ENE 1031,4 7 0,0
18.02.2020 16:00:00 11,6 1,8 11 6 ENE 1031,6 3,1 -
18.02.2020 15:00:00 11,6 2,6 8 4 NNE 1032,0 20 0,0
18.02.2020 14:00:00 10,2 2,8 13 7 ENE 1033,0 20 0,0
18.02.2020 13:00:00 9,9 4,1 13 7 ENE 1033,9 20 -
18.02.2020 12:00:00 8,4 4,4 11 6 ENE 1034,9 20 0,0
18.02.2020 11:00:00 6,1 3,4 11 6 NE 1035,6 19 0,0
18.02.2020 10:00:00 3,8 2,9 8 4 NE 1035,8 18 -
18.02.2020 09:00:00 2,4 1,8 5 3 NE 1035,8 19 0,0
18.02.2020 08:00:00 1,7 1,3 8 4 N 1035,4 18 0,0
18.02.2020 07:00:00 1,3 0,9 4 2 N 1035,3 20 -
18.02.2020 06:00:00 1,1 0,5 2 1 N 1035,1 17 0,0
18.02.2020 05:00:00 1,2 0,3 4 2 NNW 1035,0 17 0,0
18.02.2020 04:00:00 1,7 0,8 5 3 NNE 1034,9 17 -
18.02.2020 03:00:00 2,5 1,2 4 2 N 1035,2 19 0,0
18.02.2020 02:00:00 3,3 1,0 4 2 N 1035,2 20 0,0
18.02.2020 01:00:00 4,1 1,1 8 4 N 1034,7 20 -
18.02.2020 00:00:00 4,4 1,1 4 2 NW 1034,5 20 0,0
17.02.2020 23:00:00 5,6 1,1 4 2 WNW 1034,2 20 0,0
17.02.2020 22:00:00 6,8 1,5 8 4 N 1033,3 20 -
17.02.2020 21:00:00 8,2 1,6 8 4 NNW 1032,4 20 0,0
17.02.2020 20:00:00 10,5 2,3 8 4 N 1031,0 20 0,0
17.02.2020 19:00:00 11,8 4,0 8 4 N 1029,9 20 -
17.02.2020 18:00:00 13,3 2,2 5 3 W 1028,6 20 0,0
17.02.2020 17:00:00 14,1 2,9 5 3 W 1027,9 20 0,0
17.02.2020 16:00:00 14,9 3,1 8 4 WNW 1027,4 20 -
17.02.2020 15:00:00 14,9 3,7 9 5 WNW 1027,2 20 0,0
17.02.2020 14:00:00 13,7 5,1 9 5 W 1027,9 20 0,0
17.02.2020 13:00:00 12,3 6,3 8 4 W 1028,7 20 -
17.02.2020 12:00:00 12,6 8,5 8 4 W 1028,1 18 0,0
17.02.2020 11:00:00 11,9 9,3 8 4 W 1027,6 19 0,0
17.02.2020 10:00:00 11,9 10,8 8 4 W 1026,5 18 -
17.02.2020 09:00:00 11,9 10,5 9 5 WSW 1025,2 15 0,0
17.02.2020 08:00:00 11,7 9,9 9 5 SW 1024,4 20 0,0
17.02.2020 07:00:00 11,3 9,4 9 5 WSW 1024,0 20 -
17.02.2020 06:00:00 10,7 8,6 11 6 SW 1024,1 20 0,0
17.02.2020 05:00:00 11,0 8,6 11 6 SW 1024,4 20 0,0
17.02.2020 04:00:00 11,2 8,6 11 6 SW 1024,9 20 -
17.02.2020 03:00:00 11,3 8,7 9 5 SW 1025,4 20 0,0
17.02.2020 02:00:00 11,0 8,6 8 4 SW 1026,0 20 0,0
17.02.2020 01:00:00 11,0 8,6 5 3 SW 1026,0 20 -
17.02.2020 00:00:00 11,5 8,9 8 4 SW 1025,8 20 0,0
16.02.2020 23:00:00 12,0 8,5 9 5 SW 1025,7 20 0,0
16.02.2020 22:00:00 12,5 8,6 13 7 SW 1026,0 20 -
16.02.2020 21:00:00 12,6 8,5 13 7 SW 1025,6 20 0,0
16.02.2020 20:00:00 12,6 8,9 8 4 WSW 1025,3 20 0,0
16.02.2020 19:00:00 13,3 8,6 9 5 WSW 1024,4 20 -
16.02.2020 18:00:00 14,2 8,6 11 6 SW 1023,8 20 0,0
16.02.2020 17:00:00 14,6 7,6 13 7 WSW 1023,7 20 0,0
16.02.2020 16:00:00 15,3 8,5 11 6 WSW 1023,7 20 -
16.02.2020 15:00:00 14,9 9,0 13 7 W 1023,8 20 0,0
16.02.2020 14:00:00 14,6 9,2 11 6 WSW 1024,4 19 0,0
16.02.2020 13:00:00 13,9 8,7 9 5 WSW 1025,4 20 -
16.02.2020 12:00:00 13,4 8,2 13 7 WSW 1025,4 19 0,0
16.02.2020 11:00:00 12,4 8,5 11 6 SW 1025,7 19 0,0
16.02.2020 10:00:00 10,2 8,1 11 6 SW 1026,3 18 -
16.02.2020 09:00:00 9,0 7,8 8 4 WSW 1026,7 17 0,0
16.02.2020 08:00:00 8,8 7,6 9 5 SW 1026,0 17 0,0
16.02.2020 07:00:00 9,2 8,0 5 3 SW 1025,8 18 -
16.02.2020 06:00:00 8,5 7,6 8 4 WSW 1026,3 15 0,0
16.02.2020 05:00:00 7,9 7,0 8 4 WSW 1026,7 17 0,0
16.02.2020 04:00:00 7,6 6,2 5 3 SW 1027,0 18 -
16.02.2020 03:00:00 7,8 6,3 5 3 SSW 1027,4 19 0,0
16.02.2020 02:00:00 7,9 6,4 4 2 SW 1027,2 19 0,0
16.02.2020 01:00:00 8,5 6,6 4 2 S 1027,0 19 -
16.02.2020 00:00:00 9,0 7,0 4 2 WSW 1026,9 20 0,0
15.02.2020 23:00:00 9,1 7,0 5 3 SSW 1026,4 20 0,0
15.02.2020 22:00:00 9,5 7,4 4 2 SSW 1027,1 20 -
15.02.2020 21:00:00 10,3 7,5 4 2 SSW 1026,8 16 0,0
15.02.2020 20:00:00 11,6 7,9 4 2 WNW 1026,1 20 0,0
15.02.2020 19:00:00 13,2 7,8 4 2 W 1024,8 20 -
15.02.2020 18:00:00 14,6 8,3 8 4 W 1023,9 20 0,0
15.02.2020 17:00:00 15,2 8,4 5 3 WSW 1023,2 19 0,0
15.02.2020 16:00:00 14,0 10,2 5 3 SE 1023,7 17 -
15.02.2020 15:00:00 10,9 8,6 4 2 E 1025,4 13 0,0
15.02.2020 14:00:00 8,6 6,9 5 3 SSE 1026,7 8 0,0
15.02.2020 13:00:00 6,8 6,4 4 2 N 1028,4 4,2 -
15.02.2020 12:00:00 5,4 5,4 4 2 E 1029,1 0,6 0,0
15.02.2020 11:00:00 4,3 4,3 2 1 N 1029,6 0,3 0,0
15.02.2020 10:00:00 3,5 3,5 2 1 NNE 1029,2 0,1 -
15.02.2020 09:00:00 3,0 3,0 4 2 SE 1028,2 0,2 0,0
15.02.2020 08:00:00 3,3 3,3 5 3 ESE 1027,9 0,3 0,0
15.02.2020 07:00:00 3,3 3,3 4 2 NNE 1027,8 0,2 -
15.02.2020 06:00:00 3,2 3,2 5 3 N 1027,4 0,1 0,0
15.02.2020 05:00:00 3,2 3,1 5 3 NE 1027,1 0,2 0,0
15.02.2020 04:00:00 3,8 3,7 4 2 N 1027,6 0,4 -

tt = temperature
td = dewpoint
ff = wind speed
dd = wind direction
ppp = reduced air pressure
vv = visibility
rr = precipitation

Next stations